Location: *
(45.9500°N, 9.0833°E)
Time: 20:40:14
(UTC+00:00)

GP-B - Pass Details

Date: 03 March 2021
Orbit: 631 x 635 km, 89.8° (Epoch: 22 April)

Event Time Altitude Azimuth Distance (km) Brightness Sun altitude
Rises 17:44:47 0° 144° (SE) 2,918 6.2 -6.3°
Reaches altitude 10° 17:47:19 10° 130° (SE) 2,016 5.3 -6.7°
Maximum altitude 17:50:51 24° 77° (ENE) 1,326 4.2 -7.4°
Drops below altitude 10° 17:54:24 10° 24° (NNE) 2,031 5.5 -8.0°
Sets 17:56:57 0° 11° (N) 2,945 6.4 -8.4°
